Home   Weather   Leipzig   Past weeks

Flag for Germany Past Weather in Leipzig, Saxony, Germany — Yesterday and Last 2 Weeks

Now
23 °F

Clear.


Feels Like: 16 °F
Forecast: 22 / 31 °F
Wind: 6 mph from West

Location: Leipzig-Schkeuditz

Current Time: Dec 5, 2016 at 9:49:13 pm

Latest Report: Dec 5, 2016 at 9:20 pm


Visibility: 10 mi

Pressure: 30.33 "Hg

Humidity: 86%

Dew Point: 19 °F

Location of LeipzigLocation

Past Weather in Leipzig — Graph

°F

Leipzig Temperature Yesterday

Maximum temperature yesterday: 34 °F (at 12:50 pm)
Minimum temperature yesterday: 21 °F (at 5:50 am)
Average temperature yesterday: 26 °F

High & Low Weather Summary for the Past Weeks

 TemperatureHumidityPressure
High55 °F (Nov 22, 1:20 pm)100% (Nov 23, 1:20 am)30.57 "Hg (Nov 23, 1:20 am)
Low19 °F (Dec 5, 2:50 am)60% (Nov 30, 11:50 am)29.68 "Hg (Nov 20, 8:20 pm)
Average36 °F87%30.17 "Hg
* Reported Nov 20 8:20 pm — Dec 5 8:20 pm, Leipzig, Weather by CustomWeather, © 2016

Note: Actual official high and low records may vary slightly from our data, if they occured in-between our weather recording intervals... More about our weather records

Advertising

Leipzig Weather History for the Previous 24 Hours

Scroll right to see more
 ConditionsComfort  
Time TempWeatherWind HumidityBarometerVisibility
8:20 pm
Mon, Dec 5
25 °FClear.9 mph86%30.30 "Hg10 mi
7:50 pm25 °FClear.6 mph86%30.30 "Hg10 mi
7:20 pm25 °FClear.7 mph86%30.30 "Hg10 mi
6:50 pm27 °FClear.7 mph80%30.30 "Hg10 mi
6:20 pm28 °FClear.6 mph74%30.30 "Hg10 mi
5:50 pm28 °FClear.7 mph74%30.30 "Hg10 mi
5:20 pm28 °FClear.8 mph74%30.30 "Hg10 mi
4:50 pm28 °FClear.7 mph74%30.30 "Hg10 mi
4:20 pm30 °FChilly.8 mph75%30.30 "HgN/A
3:50 pm30 °FSunny.7 mph80%30.30 "Hg10 mi
3:20 pm32 °FSunny.7 mph75%30.30 "Hg10 mi
2:50 pm36 °FSunny.7 mph65%30.30 "Hg10 mi
2:20 pm36 °FSunny.8 mph65%30.30 "Hg10 mi
1:50 pm36 °FSunny.10 mph65%30.30 "Hg10 mi
1:20 pm36 °FSunny.9 mph65%30.30 "Hg10 mi
12:50 pm34 °FSunny.10 mph75%30.30 "Hg10 mi
12:20 pm32 °FSunny.10 mph80%30.33 "Hg10 mi
11:50 am32 °FSunny.9 mph80%30.33 "Hg10 mi
11:20 am28 °FSunny.7 mph86%30.33 "Hg10 mi
10:50 am28 °FSunny.7 mph86%30.33 "Hg10 mi
10:20 am27 °FSunny.7 mph86%30.36 "Hg10 mi
9:50 am27 °FPassing clouds.5 mph86%30.33 "HgN/A
9:20 am23 °FSunny.3 mph93%30.36 "Hg10 mi
8:50 am21 °FSunny.3 mph93%30.36 "Hg10 mi
8:20 am19 °FSunny.5 mph93%30.36 "Hg10 mi
7:50 am19 °FClear.5 mph93%30.36 "Hg10 mi
7:20 am19 °FClear.5 mph100%30.36 "Hg10 mi
6:50 am21 °FPassing clouds.5 mph93%30.36 "HgN/A
6:20 am21 °FClear.5 mph93%30.36 "Hg5 mi
5:50 am23 °FPassing clouds.3 mph93%30.36 "HgN/A
5:20 am21 °FClear.3 mph100%30.36 "Hg4 mi
4:50 am21 °FIce fog.5 mph93%30.36 "Hg3 mi
4:20 am21 °FIce fog.5 mph93%30.36 "Hg2 mi
3:50 am21 °FIce fog.6 mph100%30.36 "Hg1 mi
3:20 am21 °FIce fog.8 mph93%30.39 "Hg0 mi
2:50 am19 °FIce fog.7 mph100%30.39 "Hg0 mi
2:20 am21 °FIce fog.5 mph93%30.39 "Hg0 mi
1:50 am21 °FIce fog.3 mph100%30.39 "Hg0 mi
1:20 am23 °FIce fog.3 mph93%30.39 "Hg0 mi
12:50 am23 °FIce fog.6 mph100%30.39 "Hg1 mi
12:20 am23 °FIce fog.5 mph93%30.42 "Hg1 mi
11:50 pm
Sun, Dec 4
27 °FIce fog.5 mph93%30.42 "Hg2 mi
11:20 pm25 °FIce fog.5 mph100%30.42 "Hg2 mi
10:50 pm23 °FIce fog.7 mph93%30.42 "Hg1 mi
10:20 pm25 °FIce fog.5 mph100%30.42 "Hg1 mi
9:50 pm23 °FIce fog.6 mph100%30.42 "Hg1 mi
9:20 pm27 °FIce fog.6 mph100%30.42 "Hg1 mi
Weather by CustomWeather, © 2016

See weather overviewHow to use our weather pages